Powrót do katalogu

STARLINK-30520

AktywnyŁącznośćVLEO
NORAD 58010·PAYLOAD·🇺🇸 United States

Wystrzelony Oct 5, 2023 z Cape Canaveral Space Force Station

Loading…

Następne Przeloty (najbliższe 24 godziny)

TLE

ŚwieżeSource: CelesTrak SupGP

Epoka: Sep 15, 2026, 03:14 UTC

1 58010C 23153V   26258.13520833 -.00057146  00000+0 -20695-2 0  2582
2 58010  43.0037  77.0803 0001932 268.3782 334.4306 15.27611673    12

Śledź STARLINK-30520 w czasie rzeczywistym z AllMySat

Download on the App Store